When you browse on this site, cookies collect data to enhance your experience and personalize the content and advertising you see.
Visit our Privacy Policy to learn more. By continuing to use the site, you agree to this use of cookies and data.
  • In United Kingdom
  • List of Countries
  • For 7 days
  • Water Temperature
  • Satellite Maps
  • Weather Map
  • Weather Widgets
  • user-avatar
    Login

    Hourly Weather Winchester

    Today, 25 May, Saturday

    Time Temperature Precipitation Wind Pressure Humidity
    00:00 +13°C° 0 mm 2 mps 758 mmHg 96%
    01:00 +13°C° 0 mm 2 mps 758 mmHg 95%
    02:00 +13°C° 0 mm 2 mps 758 mmHg 95%
    03:00 +13°C° 0 mm 1 mps 758 mmHg 94%
    04:00 +13°C° 0 mm 1 mps 758 mmHg 94%
    05:00 +13°C° 0 mm 1 mps 758 mmHg 93%
    06:00 +14°C° 0 mm 1 mps 759 mmHg 93%
    07:00 +15°C° 0.1 mm 1 mps 759 mmHg 88%
    08:00 +16°C° 0.1 mm 1 mps 759 mmHg 83%
    09:00 +19°C° 0.1 mm 1 mps 759 mmHg 78%
    10:00 +19°C° 0.3 mm 2 mps 759 mmHg 75%
    11:00 +19°C° 0.3 mm 2 mps 759 mmHg 73%
    12:00 +20°C° 0.3 mm 3 mps 759 mmHg 70%
    13:00 +20°C° 0.3 mm 3 mps 758 mmHg 70%
    14:00 +21°C° 0.3 mm 3 mps 758 mmHg 70%
    15:00 +21°C° 0.3 mm 4 mps 758 mmHg 70%
    16:00 +20°C° 0.2 mm 4 mps 758 mmHg 74%
    17:00 +20°C° 0.2 mm 4 mps 758 mmHg 77%
    18:00 +19°C° 0.2 mm 3 mps 757 mmHg 80%
    19:00 +18°C° 0 mm 3 mps 758 mmHg 84%
    20:00 +16°C° 0 mm 3 mps 758 mmHg 87%
    21:00 +13°C° 0 mm 3 mps 758 mmHg 91%
    22:00 +12°C° 0 mm 3 mps 758 mmHg 93%
    23:00 +12°C° 0 mm 3 mps 758 mmHg 95%

    Tomorrow, 26 May, Sunday

    Time Temperature Precipitation Wind Pressure Humidity
    00:00 +11°C° 0 mm 3 mps 757 mmHg 96%
    01:00 +11°C° 0 mm 3 mps 757 mmHg 97%
    02:00 +11°C° 0 mm 3 mps 757 mmHg 97%
    03:00 +11°C° 0 mm 3 mps 756 mmHg 97%
    04:00 +12°C° 0 mm 3 mps 756 mmHg 97%
    05:00 +12°C° 0 mm 4 mps 756 mmHg 96%
    06:00 +13°C° 0 mm 4 mps 756 mmHg 95%
    07:00 +14°C° 0 mm 4 mps 756 mmHg 93%
    08:00 +15°C° 0 mm 4 mps 756 mmHg 92%
    09:00 +15°C° 0 mm 5 mps 756 mmHg 90%
    10:00 +16°C° 0.1 mm 5 mps 755 mmHg 90%
    11:00 +16°C° 0.1 mm 5 mps 755 mmHg 91%
    12:00 +16°C° 0.1 mm 5 mps 755 mmHg 91%
    13:00 +16°C° 0.1 mm 5 mps 755 mmHg 90%
    14:00 +17°C° 0.1 mm 6 mps 754 mmHg 89%
    15:00 +17°C° 0.1 mm 6 mps 754 mmHg 88%
    16:00 +17°C° 0 mm 6 mps 754 mmHg 87%
    17:00 +16°C° 0 mm 5 mps 754 mmHg 86%
    18:00 +16°C° 0 mm 5 mps 754 mmHg 85%
    19:00 +15°C° 0 mm 5 mps 754 mmHg 87%
    20:00 +13°C° 0 mm 4 mps 754 mmHg 90%
    21:00 +12°C° 0 mm 3 mps 755 mmHg 92%
    22:00 +11°C° 0 mm 3 mps 755 mmHg 93%
    23:00 +10°C° 0 mm 3 mps 755 mmHg 93%

    Day after tomorrow, 27 May, Monday

    Time Temperature Precipitation Wind Pressure Humidity
    00:00 +9°C° 0 mm 3 mps 755 mmHg 93%
    01:00 +9°C° 0 mm 3 mps 755 mmHg 94%
    02:00 +8°C° 0 mm 3 mps 755 mmHg 94%
    03:00 +8°C° 0 mm 3 mps 755 mmHg 95%
    04:00 +9°C° 0 mm 3 mps 755 mmHg 93%
    05:00 +10°C° 0 mm 3 mps 755 mmHg 91%
    06:00 +10°C° 0 mm 3 mps 755 mmHg 89%
    07:00 +12°C° 0 mm 3 mps 755 mmHg 83%
    08:00 +13°C° 0 mm 4 mps 755 mmHg 76%
    09:00 +14°C° 0 mm 4 mps 755 mmHg 69%
    10:00 +15°C° 0 mm 4 mps 755 mmHg 67%
    11:00 +17°C° 0 mm 4 mps 755 mmHg 65%
    12:00 +18°C° 0 mm 4 mps 755 mmHg 63%
    13:00 +17°C° 0.1 mm 5 mps 755 mmHg 63%
    14:00 +17°C° 0.1 mm 6 mps 754 mmHg 63%
    15:00 +17°C° 0.1 mm 6 mps 754 mmHg 63%
    16:00 +16°C° 0 mm 6 mps 754 mmHg 66%
    17:00 +15°C° 0 mm 6 mps 754 mmHg 69%
    18:00 +15°C° 0 mm 5 mps 754 mmHg 73%
    19:00 +13°C° 0 mm 5 mps 754 mmHg 77%
    20:00 +12°C° 0 mm 4 mps 754 mmHg 81%
    21:00 +10°C° 0 mm 4 mps 754 mmHg 86%
    22:00 +10°C° 0 mm 4 mps 753 mmHg 87%
    23:00 +8°C° 0 mm 4 mps 753 mmHg 89%

    28 May, Tuesday

    Time Temperature Precipitation Wind Pressure Humidity
    00:00 +8°C° 0 mm 4 mps 753 mmHg 90%
    01:00 +8°C° 0 mm 4 mps 753 mmHg 90%
    02:00 +8°C° 0 mm 4 mps 753 mmHg 90%
    03:00 +8°C° 0 mm 4 mps 753 mmHg 90%
    04:00 +8°C° 0 mm 4 mps 753 mmHg 88%
    05:00 +8°C° 0 mm 5 mps 753 mmHg 87%
    06:00 +9°C° 0 mm 5 mps 753 mmHg 86%
    07:00 +10°C° 0 mm 5 mps 753 mmHg 82%
    08:00 +12°C° 0 mm 5 mps 754 mmHg 77%
    09:00 +13°C° 0 mm 5 mps 754 mmHg 73%
    10:00 +14°C° 0.4 mm 5 mps 754 mmHg 71%
    11:00 +14°C° 0.4 mm 5 mps 754 mmHg 70%
    12:00 +15°C° 0.4 mm 5 mps 754 mmHg 68%
    13:00 +15°C° 0.6 mm 5 mps 754 mmHg 69%
    14:00 +15°C° 0.6 mm 5 mps 754 mmHg 71%
    15:00 +15°C° 0.6 mm 6 mps 755 mmHg 72%
    16:00 +15°C° 0.4 mm 5 mps 755 mmHg 75%
    17:00 +14°C° 0.4 mm 4 mps 755 mmHg 78%
    18:00 +14°C° 0.4 mm 4 mps 755 mmHg 82%
    19:00 +12°C° 0.1 mm 4 mps 756 mmHg 84%
    20:00 +11°C° 0.1 mm 3 mps 756 mmHg 87%
    21:00 +10°C° 0.1 mm 3 mps 757 mmHg 89%
    22:00 +9°C° 0 mm 3 mps 757 mmHg 89%
    23:00 +8°C° 0 mm 3 mps 757 mmHg 89%

    29 May, Wednesday

    Time Temperature Precipitation Wind Pressure Humidity
    00:00 +7°C° 0 mm 3 mps 758 mmHg 90%
    01:00 +5°C° 0 mm 3 mps 758 mmHg 89%
    02:00 +4°C° 0 mm 3 mps 758 mmHg 88%
    03:00 +3°C° 0 mm 3 mps 758 mmHg 88%
    04:00 +5°C° 0 mm 2 mps 759 mmHg 87%
    05:00 +6°C° 0 mm 2 mps 759 mmHg 85%
    06:00 +7°C° 0 mm 2 mps 760 mmHg 84%
    07:00 +9°C° 0 mm 2 mps 760 mmHg 77%
    08:00 +12°C° 0 mm 1 mps 760 mmHg 69%
    09:00 +14°C° 0 mm 1 mps 760 mmHg 62%
    10:00 +15°C° 0 mm 2 mps 760 mmHg 60%
    11:00 +16°C° 0 mm 2 mps 760 mmHg 58%
    12:00 +17°C° 0 mm 3 mps 760 mmHg 56%
    13:00 +17°C° 0 mm 4 mps 760 mmHg 60%
    14:00 +17°C° 0 mm 4 mps 760 mmHg 64%
    15:00 +15°C° 0 mm 5 mps 760 mmHg 68%
    16:00 +14°C° 0 mm 5 mps 760 mmHg 73%
    17:00 +13°C° 0 mm 5 mps 760 mmHg 78%
    18:00 +12°C° 0 mm 4 mps 759 mmHg 82%
    19:00 +12°C° 0 mm 4 mps 759 mmHg 87%
    20:00 +13°C° 0 mm 4 mps 759 mmHg 91%
    21:00 +13°C° 0 mm 4 mps 759 mmHg 95%
    22:00 +13°C° 0.1 mm 5 mps 759 mmHg 95%
    23:00 +13°C° 0.1 mm 5 mps 759 mmHg 95%

    30 May, Thursday

    Time Temperature Precipitation Wind Pressure Humidity
    00:00 +13°C° 0.1 mm 5 mps 759 mmHg 96%
    01:00 +13°C° 0.1 mm 6 mps 758 mmHg 95%
    02:00 +13°C° 0.1 mm 6 mps 758 mmHg 95%
    03:00 +13°C° 0.1 mm 6 mps 758 mmHg 94%
    04:00 +13°C° 0.1 mm 6 mps 758 mmHg 94%
    05:00 +13°C° 0.1 mm 6 mps 758 mmHg 94%
    06:00 +13°C° 0.1 mm 6 mps 758 mmHg 93%
    07:00 +14°C° 0.2 mm 6 mps 758 mmHg 93%
    08:00 +14°C° 0.2 mm 7 mps 758 mmHg 92%
    09:00 +15°C° 0.2 mm 7 mps 758 mmHg 91%
    10:00 +15°C° 0.2 mm 7 mps 758 mmHg 91%
    11:00 +15°C° 0.2 mm 7 mps 758 mmHg 91%
    12:00 +15°C° 0.2 mm 7 mps 758 mmHg 91%
    13:00 +15°C° 0.1 mm 7 mps 758 mmHg 90%
    14:00 +16°C° 0.1 mm 7 mps 758 mmHg 90%
    15:00 +16°C° 0.1 mm 7 mps 758 mmHg 89%
    16:00 +16°C° 0.1 mm 7 mps 758 mmHg 87%
    17:00 +16°C° 0.1 mm 7 mps 758 mmHg 85%
    18:00 +16°C° 0.1 mm 6 mps 758 mmHg 82%
    19:00 +15°C° 0 mm 6 mps 758 mmHg 86%
    20:00 +14°C° 0 mm 5 mps 759 mmHg 90%
    21:00 +13°C° 0 mm 5 mps 759 mmHg 93%
    22:00 +12°C° 0 mm 4 mps 759 mmHg 95%
    23:00 +12°C° 0 mm 4 mps 760 mmHg 96%
    Show more